{"data":{"norad_id":58755,"intl_designator":"2023-185S","name":"NANOFF B","alt_names":[],"object_type":"PAYLOAD","status":"ACTIVE","operator":null,"country":"GER","launch_date":"2023-12-01","launch_site_code":"AFWTR","launch_vehicle":null,"mission":null,"orbit_class":"UNKNOWN","rcs_meters":null,"size_class":null,"mass_kg":null,"dimensions":null,"purposes":[],"wikipedia_slug":null,"has_3d_model":false,"image_url":null,"decayed_at":null,"tle_current":{"epoch":"2026-05-25T03:53:22.867008Z","epoch_age_seconds":60762,"freshness":"FRESH","line1":"1 58755U 23185S   26145.16207022  .00002832  00000+0  16792-3 0  9999","line2":"2 58755  97.5271 212.9603 0013023  31.6506 328.5505 15.12105877130397","mean_motion":15.12105877,"eccentricity":0.0013023,"inclination_deg":97.5271,"raan_deg":212.9603,"arg_perigee_deg":31.6506,"mean_anomaly_deg":328.5505,"bstar":0.00016792,"rev_number":13039,"period_min":95.231426707827,"perigee_km":520.7827019408,"apogee_km":538.77505964391,"semimajor_km":6907.9158807924,"source":"CELESTRAK","updated_at":"2026-05-25T13:38:00.962996Z"}}}